ORBCOMM FM115 [+] (41186 NORAD) Tracking and Keplerian Element Data

This shows tracking and keplerian element data for the satellite.

Feedback or suggestion? Click here.




ElementValue
Catalog41186
NameORBCOMM FM115 [+]
Epoch Orbit16068
Epoch Day348.67793254
Epoch Year2018
RAAN123.2004
Inclination46.9993
Eccentricity0.0002528
Argument of Perigee246.0859
Mean Anonmoly113.976
Mean Motion14.54747117
Decay Rate-1.18E-06
L11 41186U 15081H 18348.67793254 -.00000118 00000-0 11146-4 0 9990
L22 41186 46.9993 123.2004 0002528 246.0859 113.9760 14.54747117160684

Live tracking and technical data element details for ORBCOMM FM115 [+] (NORAD 41186). ORBCOMM FM115 [+] can be tracked NOW for your location showing map with azimuth and elevation plus other details from your city location.

Track the satellite on the map from your city or location and see movement details for azimuth, elevation, latitude, longitude, range, height, and movement on the map or in text.







IsCatalogInMostPopularTable: catalog: 41186, numindb: 108
Update: records affected: 1



GetName: 41186 ORBCOMM FM115 [+]

Hit Count: updated at: Sat, 15 Dec 2018 14:22:25 GMT